{"data":{"norad_id":66320,"intl_designator":"2025-253B","name":"STARLINK-34616","alt_names":[],"object_type":"PAYLOAD","status":"ACTIVE","operator":null,"country":"US","launch_date":"2025-11-06","launch_site_code":"AFETR","launch_vehicle":null,"mission":null,"orbit_class":"UNKNOWN","rcs_meters":null,"size_class":null,"mass_kg":null,"dimensions":null,"purposes":["comms"],"wikipedia_slug":null,"has_3d_model":false,"image_url":null,"decayed_at":null,"tle_current":{"epoch":"2026-05-24T23:03:32.847840Z","epoch_age_seconds":82027,"freshness":"FRESH","line1":"1 66320U 25253B   26144.96079685  .00016981  00000+0  62477-3 0  9994","line2":"2 66320  42.9973 141.3839 0001273 274.6490  85.4217 15.27600907 31993","mean_motion":15.27600907,"eccentricity":0.0001273,"inclination_deg":42.9973,"raan_deg":141.3839,"arg_perigee_deg":274.649,"mean_anomaly_deg":85.4217,"bstar":0.00062477,"rev_number":3199,"period_min":94.265458563255,"perigee_km":482.11307265365,"apogee_km":483.85991469514,"semimajor_km":6861.1234936744,"source":"CELESTRAK","updated_at":"2026-05-25T13:38:21.166419Z"}}}